* Astronomy

Members Login
Username 
 
Password 
    Remember Me  
Post Info TOPIC: Asteroid 2011 YS62


L

Posts: 131433
Date:
Asteroid 2011 YS62
Permalink  
 


Orbital elements:
2011 YS62                                                Earth MOID = 0.0684 AU
Epoch 2012 Mar. 14.0 TT = JDT 2456000.5                 MPC
M  27.25678              (2000.0)            P               Q
n   0.26076245     Peri.  356.75345     +0.56120876     -0.76700940
a   2.4264575      Node    58.87745     +0.76732638     +0.34129108
e   0.5651329      Incl.   21.30477     +0.31024982     +0.54333873
P   3.78           H   19.7           G   0.15           U   8

MPEC 2012 - A04



__________________
Page 1 of 1  sorted by
 
Quick Reply

Please log in to post quick replies.



Create your own FREE Forum
Report Abuse
Powered by ActiveBoard